| time (UTC) | temp F | wind direction | speed knots | gust knots | rain 1hr in | rain 24hr in | rain mn in | humidity % | barometer mb |
| 20260503185019 | 60 | 203 | 4.3 | 7.8 | 0.00 | 0.00 | 0.00 | 42 | 1017.8 |
| 20260503184019 | 59 | 270 | 7.0 | 13.0 | 0.00 | 0.00 | 0.00 | 43 | 1017.9 |
| 20260503183021 | 59 | 315 | 5.2 | 10.4 | 0.00 | 0.00 | 0.00 | 43 | 1018.1 |
| 20260503182019 | 59 | 270 | 3.5 | 10.4 | 0.00 | 0.00 | 0.00 | 44 | 1018.3 |
| 20260503181019 | 59 | 270 | 4.3 | 8.7 | 0.00 | 0.00 | 0.00 | 43 | 1018.3 |
| 20260503180040 | 59 | 315 | 1.7 | 8.7 | 0.00 | 0.00 | 0.00 | 44 | 1018.2 |
| 20260503175019 | 59 | 248 | 1.7 | 5.2 | 0.00 | 0.00 | 0.00 | 41 | 1018.4 |
| 20260503174019 | 59 | 270 | 4.3 | 9.6 | 0.00 | 0.00 | 0.00 | 39 | 1018.6 |
| 20260503173019 | 58 | 203 | 2.6 | 7.8 | 0.00 | 0.00 | 0.00 | 41 | 1018.6 |
| 20260503172019 | 57 | 315 | 3.5 | 7.0 | 0.00 | 0.00 | 0.00 | 40 | 1018.7 |
| 20260503171019 | 58 | 0 | 3.5 | 7.0 | 0.00 | 0.00 | 0.00 | 44 | 1019.0 |
| 20260503131020 | 50 | 0.0 | 0.9 | 0.00 | 0.00 | 0.00 | 67 | 1020.0 | |
| 20260503081601 | 37 | 305 | 0.0 | 0.9 | 0.00 | 0.00 | 0.00 | 51 | 1017.1 |
| 20260503071605 | 41 | 305 | 0.0 | 0.9 | 0.00 | 0.00 | 0.00 | 53 | 1016.5 |
| 20260503054550 | 42 | 305 | 0.0 | 1.7 | 0.00 | 0.00 | 0.00 | 62 | 1016.2 |
| 20260503053037 | 42 | 305 | 0.9 | 1.7 | 0.00 | 0.00 | 0.00 | 67 | 1016.2 |
| 20260503051541 | 43 | 305 | 0.0 | 1.7 | 0.00 | 0.00 | 0.00 | 70 | 1016.1 |
| 20260503050024 | 44 | 305 | 0.0 | 1.7 | 0.00 | 0.00 | 0.00 | 72 | 1016.0 |
| 20260503044521 | 45 | 305 | 0.9 | 2.6 | 0.00 | 0.00 | 0.00 | 73 | 1015.8 |
| 20260503041518 | 47 | 327 | 0.9 | 1.7 | 0.00 | 0.00 | 0.00 | 69 | 1015.5 |
| 20260503040012 | 48 | 328 | 2.6 | 5.2 | 0.00 | 0.00 | 0.00 | 65 | 1015.4 |
| 20260503034507 | 49 | 5 | 1.7 | 3.5 | 0.00 | 0.00 | 0.00 | 65 | 1015.3 |
| 20260503033006 | 49 | 309 | 2.6 | 4.3 | 0.00 | 0.00 | 0.00 | 64 | 1015.3 |
| 20260503031505 | 49 | 300 | 2.6 | 4.3 | 0.00 | 0.00 | 0.00 | 64 | 1015.3 |
| 20260503030006 | 49 | 311 | 2.6 | 4.3 | 0.00 | 0.00 | 0.00 | 64 | 1015.3 |
| 20260503024502 | 49 | 313 | 2.6 | 4.3 | 0.00 | 0.00 | 0.00 | 63 | 1015.1 |
| 20260503023100 | 49 | 310 | 2.6 | 4.3 | 0.00 | 0.00 | 0.00 | 63 | 1014.9 |
| 20260503021602 | 49 | 311 | 2.6 | 4.3 | 0.00 | 0.00 | 0.00 | 64 | 1014.8 |
| 20260503020100 | 48 | 313 | 1.7 | 3.5 | 0.00 | 0.00 | 0.00 | 67 | 1014.6 |
| 20260503014607 | 49 | 313 | 0.9 | 3.5 | 0.00 | 0.00 | 0.00 | 66 | 1014.4 |
| 20260503013049 | 50 | 313 | 0.0 | 3.5 | 0.00 | 0.00 | 0.00 | 65 | 1014.2 |
| 20260503011603 | 51 | 314 | 1.7 | 3.5 | 0.00 | 0.00 | 0.00 | 59 | 1014.0 |
| 20260503010046 | 52 | 314 | 2.6 | 4.3 | 0.00 | 0.00 | 0.00 | 57 | 1013.7 |
| 20260503004546 | 52 | 302 | 1.7 | 7.0 | 0.00 | 0.00 | 0.00 | 56 | 1013.6 |
| 20260503003045 | 53 | 302 | 0.9 | 4.3 | 0.00 | 0.00 | 0.00 | 55 | 1013.5 |
| 20260503001545 | 54 | 317 | 3.5 | 8.7 | 0.00 | 0.00 | 0.00 | 52 | 1013.2 |
| 20260503000045 | 56 | 327 | 4.3 | 7.8 | 0.00 | 0.00 | 0.00 | 49 | 1012.9 |
| 20260502234606 | 57 | 317 | 4.3 | 8.7 | 0.00 | 0.00 | 0.00 | 49 | 1012.9 |
| 20260502233043 | 57 | 313 | 6.1 | 10.4 | 0.00 | 0.00 | 0.00 | 49 | 1012.9 |
| 20260502231543 | 57 | 292 | 2.6 | 5.2 | 0.00 | 0.00 | 0.00 | 52 | 1012.8 |
| 20260502230141 | 57 | 5 | 6.1 | 8.7 | 0.00 | 0.00 | 0.00 | 46 | 1012.6 |
| 20260502224541 | 59 | 319 | 7.0 | 10.4 | 0.00 | 0.00 | 0.00 | 43 | 1012.6 |
| 20260502223049 | 59 | 310 | 3.5 | 12.2 | 0.00 | 0.00 | 0.00 | 44 | 1012.6 |
| 20260502221539 | 58 | 335 | 6.1 | 8.7 | 0.00 | 0.00 | 0.00 | 44 | 1012.4 |
| 20260502220039 | 58 | 295 | 7.0 | 12.2 | 0.00 | 0.00 | 0.00 | 45 | 1012.3 |
| 20260502214539 | 60 | 313 | 4.3 | 12.2 | 0.00 | 0.00 | 0.00 | 40 | 1012.0 |
| 20260502213044 | 60 | 286 | 3.5 | 11.3 | 0.00 | 0.00 | 0.00 | 46 | 1011.9 |
| 20260502211638 | 60 | 328 | 10.4 | 14.8 | 0.00 | 0.00 | 0.00 | 40 | 1011.8 |
| 20260502210040 | 59 | 333 | 6.1 | 12.2 | 0.00 | 0.00 | 0.00 | 42 | 1011.7 |
| 20260502204536 | 60 | 323 | 4.3 | 10.4 | 0.00 | 0.00 | 0.00 | 40 | 1011.7 |
| 20260502203043 | 60 | 304 | 7.0 | 13.0 | 0.00 | 0.00 | 0.00 | 40 | 1011.7 |
| 20260502201538 | 61 | 278 | 7.8 | 14.8 | 0.00 | 0.00 | 0.00 | 43 | 1011.7 |
| 20260502200034 | 61 | 239 | 4.3 | 11.3 | 0.00 | 0.00 | 0.00 | 42 | 1011.7 |
| 20260502194532 | 62 | 355 | 6.1 | 11.3 | 0.00 | 0.00 | 0.00 | 39 | 1011.8 |
| 20260502193035 | 61 | 335 | 7.0 | 13.0 | 0.00 | 0.00 | 0.00 | 39 | 1011.8 |
| 20260502191536 | 61 | 323 | 6.1 | 9.6 | 0.00 | 0.00 | 0.00 | 40 | 1012.0 |
| 20260502190029 | 61 | 309 | 2.6 | 9.6 | 0.00 | 0.00 | 0.00 | 41 | 1012.1 |